Temp
-11 -10 -10 -11 -10 -10 -11 -10 -11 -11 -11 -11 -11 -12 -12 -12 -12 -13 -13 -12 -13 -13 -13 -13 -13 -13 -13 -13 -13 -13 -13 -12
-11 -11 -10 -11 -11 -11 -11 -11 -11 -11 -11 -11 -11 -11 -12 -12 -12 -13 -13 -13 -13 -13 -13 -13 -13 -12 -13 -13 -13 -13 -13 -13
-11 -11 -11 -11 -11 -11 -11 -11 -11 -11 -11 -11 -11 -12 -12 -12 -13 -13 -13 -13 -13 -13 -13 -13 -13 -12 -12 -12 -13 -14 -13 -13
-11 -11 -11 -11 -11 -11 -11 -12 -11 -11 -11 -11 -11 -12 -12 -13 -13 -13 -13 -13 -13 -13 -13 -13 -13 -12 -12 -12 -12 -13 -14 -13
-11 -12 -11 -11 -11 -12 -11 -12 -11 -12 -11 -11 -11 -12 -12 -13 -13 -13 -13 -13 -13 -13 -13 -13 -13 -12 -12 -12 -12 -13 -13 -13
-12 -12 -12 -12 -12 -12 -12 -12 -12 -12 -12 -12 -12 -12 -13 -13 -13 -13 -13 -13 -13 -13 -13 -13 -13 -12 -13 -12 -12 -13 -13 -14
-12 -12 -12 -12 -12 -12 -12 -12 -12 -12 -12 -12 -12 -13 -13 -13 -13 -13 -13 -13 -13 -13 -13 -13 -12 -13 -13 -13 -13 -13 -13 -14
-12 -12 -12 -12 -12 -12 -12 -12 -12 -12 -12 -12 -12 -13 -13 -13 -13 -13 -13 -13 -13 -13 -14 -13 -13 -13 -13 -12 -12 -13 -13 -14
-12 -12 -12 -12 -13 -12 -12 -12 -12 -12 -12 -12 -13 -13 -13 -13 -13 -13 -13 -13 -13 -14 -13 -13 -13 -13 -13 -13 -12 -13 -13 -13
-12 -12 -12 -12 -13 -12 -12 -12 -12 -13 -12 -13 -13 -13 -13 -13 -13 -13 -13 -13 -13 -13 -13 -13 -14 -13 -13 -13 -13 -13 -13 -13
-12 -12 -12 -13 -13 -13 -12 -12 -12 -13 -13 -13 -13 -13 -13 -13 -13 -13 -13 -13 -13 -13 -13 -13 -13 -13 -12 -13 -13 -13 -13 -13
-12 -12 -13 -13 -13 -13 -13 -13 -13 -13 -13 -13 -13 -13 -13 -13 -13 -13 -13 -12 -12 -13 -12 -12 -12 -13 -12 -13 -13 -13 -13 -13
-12 -12 -12 -12 -13 -13 -13 -13 -13 -13 -13 -13 -13 -13 -13 -13 -13 -13 -13 -12 -13 -13 -13 -13 -12 -12 -12 -12 -12 -13 -13 -13
-12 -12 -13 -12 -13 -14 -13 -13 -13 -13 -13 -13 -13 -13 -13 -13 -13 -13 -13 -12 -12 -14 -13 -13 -13 -13 -13 -13 -12 -12 -13 -13
-11 -12 -12 -12 -13 -14 -13 -13 -13 -13 -13 -13 -13 -13 -13 -13 -13 -13 -13 -12 -13 -12 -13 -13 -13 -13 -13 -12 -12 -12 -13 -13
-11 -12 -12 -12 -13 -14 -14 -14 -14 -13 -13 -13 -13 -13 -13 -13 -13 -13 -13 -13 -12 -12 -13 -12 -12 -12 -13 -12 -12 -12 -13 -13
-11 -12 -12 -13 -13 -14 -14 -14 -14 -14 -13 -13 -13 -13 -13 -13 -13 -13 -13 -13 -13 -13 -13 -13 -12 -12 -12 -12 -12 -12 -12 -13
-11 -11 -12 -12 -13 -14 -14 -15 -14 -14 -14 -14 -13 -13 -13 -13 -13 -13 -12 -13 -13 -13 -13 -13 -13 -13 -13 -13 -13 -13 -12 -12
-11 -12 -12 -12 -13 -15 -15 -15 -14 -13 -14 -14 -13 -13 -13 -13 -13 -12 -13 -13 -13 -13 -13 -13 -13 -13 -13 -13 -13 -13 -13 -13
-12 -12 -12 -13 -13 -14 -15 -15 -14 -13 -14 -14 -13 -13 -13 -13 -13 -13 -13 -13 -13 -13 -13 -14 -14 -13 -13 -13 -13 -13 -13 -13
Height
5815 5814 5814 5813 5812 5810 5810 5809 5808 5807 5806 5804 5801 5799 5799 5799 5799 5799 5799 5799 5798 5799 5799 5799 5802 5804 5806 5808 5810 5812 5814 5816
5810 5809 5809 5809 5808 5806 5805 5804 5804 5804 5802 5801 5797 5794 5794 5795 5795 5794 5794 5795 5795 5796 5795 5797 5798 5800 5801 5804 5805 5808 5810 5811
5806 5804 5803 5803 5804 5803 5802 5800 5800 5799 5798 5797 5792 5791 5789 5790 5790 5790 5790 5790 5792 5792 5792 5793 5794 5795 5797 5798 5798 5802 5804 5806
5801 5799 5797 5798 5799 5799 5798 5797 5795 5794 5792 5791 5788 5786 5784 5783 5784 5785 5785 5785 5786 5787 5787 5787 5788 5790 5790 5793 5794 5796 5799 5802
5796 5795 5794 5793 5793 5794 5793 5791 5790 5789 5787 5785 5783 5782 5780 5779 5778 5778 5779 5779 5779 5780 5781 5781 5782 5783 5783 5787 5788 5790 5795 5798
5791 5790 5789 5787 5788 5788 5788 5787 5785 5784 5782 5782 5779 5777 5775 5775 5773 5773 5773 5772 5771 5773 5774 5773 5775 5775 5777 5781 5782 5785 5789 5794
5786 5785 5784 5783 5783 5783 5782 5781 5780 5779 5777 5775 5774 5773 5771 5770 5770 5769 5768 5767 5765 5767 5765 5766 5769 5771 5773 5776 5778 5781 5784 5790
5779 5779 5778 5777 5777 5777 5777 5776 5774 5773 5771 5768 5767 5767 5766 5764 5763 5763 5762 5762 5761 5761 5759 5760 5762 5767 5769 5771 5773 5777 5781 5785
5774 5773 5772 5772 5771 5772 5771 5770 5769 5768 5766 5763 5762 5761 5760 5759 5758 5758 5757 5755 5754 5752 5753 5754 5758 5762 5765 5767 5770 5773 5777 5781
5767 5768 5767 5766 5765 5766 5765 5764 5763 5762 5760 5758 5756 5755 5754 5753 5752 5751 5751 5748 5747 5745 5746 5747 5752 5757 5760 5763 5766 5768 5772 5776
5760 5761 5760 5759 5758 5759 5758 5758 5757 5756 5755 5753 5751 5750 5749 5748 5747 5745 5744 5741 5740 5738 5738 5742 5746 5750 5754 5758 5761 5764 5768 5772
5752 5753 5753 5751 5751 5752 5752 5751 5751 5750 5749 5747 5746 5744 5744 5743 5741 5739 5737 5735 5734 5733 5733 5734 5739 5743 5748 5753 5756 5759 5763 5768
5742 5744 5746 5744 5744 5744 5745 5744 5744 5743 5742 5741 5740 5739 5737 5736 5734 5732 5731 5730 5729 5727 5728 5730 5733 5737 5743 5747 5750 5755 5758 5763
5731 5734 5736 5737 5736 5736 5737 5737 5737 5737 5736 5735 5734 5733 5731 5730 5728 5725 5724 5723 5723 5724 5724 5726 5729 5733 5738 5741 5744 5749 5754 5758
5721 5723 5725 5728 5728 5728 5729 5730 5730 5730 5730 5729 5728 5727 5725 5724 5722 5720 5717 5718 5718 5719 5720 5720 5724 5729 5732 5736 5739 5744 5750 5753
5711 5714 5716 5718 5719 5719 5722 5723 5722 5722 5723 5722 5721 5721 5719 5718 5716 5714 5712 5712 5712 5714 5714 5714 5717 5722 5726 5729 5734 5738 5743 5747
5702 5704 5707 5708 5710 5711 5713 5713 5714 5715 5716 5715 5715 5714 5712 5711 5709 5708 5707 5706 5708 5709 5708 5709 5711 5716 5721 5724 5728 5733 5736 5739
5693 5694 5697 5699 5701 5703 5705 5705 5706 5708 5709 5708 5708 5707 5706 5704 5702 5701 5699 5700 5702 5704 5704 5704 5705 5709 5715 5719 5724 5727 5732 5734
5683 5684 5687 5690 5692 5694 5697 5697 5698 5700 5702 5701 5701 5701 5699 5697 5693 5691 5692 5694 5696 5699 5700 5702 5702 5706 5710 5715 5718 5722 5726 5729
5672 5674 5678 5680 5682 5685 5688 5689 5690 5692 5694 5695 5695 5695 5693 5690 5685 5684 5686 5689 5691 5693 5696 5698 5700 5703 5707 5711 5714 5717 5721 5723
Wind_Speed
24 23 21 19 17 16 16 18 18 20 21 21 22 23 21 18 17 19 19 19 22 21 14 15 20 18 21 27 28 30 30 30
23 25 24 21 17 15 16 19 20 22 22 23 24 26 22 19 16 16 17 18 17 18 19 18 21 22 21 23 30 32 32 29
24 24 26 25 19 16 17 20 21 22 24 24 26 24 23 21 18 16 17 18 19 20 23 25 25 26 28 22 31 35 34 30
25 25 27 27 26 17 17 20 21 22 24 26 27 24 22 23 23 21 21 22 24 22 23 26 27 27 27 27 33 38 37 33
26 25 26 29 27 21 21 20 21 22 22 26 27 23 21 22 23 22 23 25 25 23 25 25 28 28 23 26 33 38 36 34
27 26 27 29 27 25 24 21 23 24 22 25 25 23 23 21 24 22 24 25 26 23 22 25 24 23 22 21 32 36 36 34
29 27 28 29 28 26 24 23 25 25 24 24 23 22 23 22 23 23 23 23 27 24 30 30 28 27 28 24 41 34 37 35
30 28 29 29 29 27 25 24 26 27 27 25 23 21 22 23 23 24 24 24 26 26 29 27 30 33 33 28 41 35 37 35
29 31 33 31 30 27 26 25 26 27 28 25 24 23 22 21 23 23 25 26 26 28 26 21 32 35 24 29 36 37 36 35
33 32 34 33 32 27 25 25 27 27 28 25 25 24 23 22 23 25 26 28 25 22 23 25 32 36 38 34 37 40 35 35
33 32 36 36 33 27 27 26 26 27 29 26 25 24 23 24 25 26 26 27 24 18 18 30 27 43 32 38 39 37 38 37
35 34 36 37 33 27 28 27 27 28 29 28 26 24 25 25 26 26 27 26 20 19 26 29 34 36 35 38 39 37 34 36
38 38 37 38 35 30 31 29 30 29 30 29 27 25 26 27 28 28 26 23 21 17 16 21 31 40 36 35 43 45 36 37
41 39 38 39 37 34 33 32 33 30 32 29 28 27 27 28 29 28 26 25 19 22 19 25 26 32 34 35 37 43 37 37
43 41 39 39 41 39 36 33 30 30 33 30 30 28 28 28 28 28 27 23 21 21 23 24 33 36 37 35 35 35 37 32
45 43 41 39 41 42 38 35 31 31 32 30 30 28 29 28 29 27 28 22 21 24 23 22 28 34 31 35 33 34 36 37
46 45 42 40 42 43 40 36 31 31 32 30 29 29 30 30 31 30 27 26 25 23 14 21 29 32 28 39 31 33 34 37
44 43 44 42 42 44 41 37 34 32 30 30 29 29 31 29 30 32 28 26 26 26 21 19 24 23 26 29 24 27 32 34
42 41 39 40 43 46 42 38 37 33 29 29 27 29 28 27 33 27 23 25 28 21 18 18 19 20 28 27 22 21 27 26
46 43 39 41 44 47 42 40 40 33 29 28 27 26 25 27 24 20 22 26 25 24 20 14 20 21 25 19 19 19 18 16
Wind_Direction
291 296 299 305 307 310 306 303 300 298 296 293 290 285 282 279 280 281 284 272 273 260 274 254 259 259 237 230 222 218 222 226
288 295 299 301 302 304 301 299 303 299 297 297 293 289 280 276 274 283 282 267 266 260 260 250 254 249 243 244 227 225 222 219
283 289 295 299 297 298 294 296 300 298 297 298 298 288 279 270 269 279 278 267 266 266 259 252 249 248 243 251 236 220 222 217
278 285 291 294 296 294 290 291 298 296 297 301 299 291 278 269 269 271 270 270 269 270 266 257 253 244 240 242 243 223 220 217
275 279 286 290 292 294 293 292 294 298 299 302 300 287 273 269 271 276 271 272 274 273 266 259 252 236 232 235 232 229 220 214
271 274 279 285 287 291 291 291 293 299 303 302 300 286 276 268 274 275 272 281 277 275 261 265 256 219 217 243 216 215 213 218
263 267 271 277 281 284 287 293 291 296 302 303 299 279 269 267 264 270 275 270 283 268 270 265 245 230 233 243 224 219 216 213
259 266 266 269 275 281 281 288 290 296 301 302 300 283 275 273 270 267 278 269 283 268 270 247 233 230 229 236 225 225 217 212
259 261 263 267 270 279 280 286 287 293 298 299 295 289 285 281 274 275 280 280 275 275 247 233 226 217 222 231 226 215 216 214
260 255 258 264 268 270 276 281 287 291 296 293 289 286 283 287 287 288 289 279 277 257 240 241 231 222 224 232 226 214 216 219
266 257 260 263 266 268 271 277 284 288 293 287 284 282 281 287 287 291 290 279 279 261 240 235 223 220 225 227 226 213 216 223
265 261 260 263 265 265 268 273 279 285 288 283 279 278 279 282 285 292 294 276 270 283 244 220 217 221 221 219 233 232 221 225
265 264 261 264 266 265 264 268 273 282 284 280 276 275 279 281 284 289 293 274 259 255 234 228 222 221 224 228 227 231 228 223
265 264 262 265 264 262 264 266 271 276 280 275 274 277 275 281 281 289 295 277 239 278 266 236 236 237 230 244 230 227 226 228
264 264 264 264 263 262 260 267 272 273 278 275 272 274 273 279 282 284 294 272 250 261 260 235 229 223 234 231 229 232 223 236
260 260 262 261 258 262 260 264 268 272 277 273 272 271 274 275 278 280 287 264 249 249 264 247 224 222 233 227 228 221 225 232
258 261 259 257 254 258 260 265 268 272 276 271 272 273 277 276 279 274 278 260 242 240 252 251 230 225 231 229 223 227 233 236
258 258 255 250 248 251 255 262 265 266 275 270 271 276 275 279 276 272 269 246 234 230 248 269 217 217 232 217 247 238 244 253
253 254 250 243 240 244 248 254 259 263 272 268 269 274 279 279 281 268 248 238 232 237 246 235 222 233 236 241 221 231 246 248
255 252 247 239 235 238 241 248 254 257 265 264 264 273 279 287 278 259 239 231 227 224 236 233 245 235 212 213 238 247 250 246